Forecast Directory
U.S. Alerts
El Dorado Weather Logo
U.S. Radar Loop Conditions Map

U.S. Color Satellite North America Color Infrared Animated Satellite Loop

Interactive Wx Map Live U.S. Google Map Radar Thumbnail Image

US Precipitation 1 day, 24 hour precipitation map

US Temperatures US Conditions Map

US Climate Data US Conditions Map


NOAA NWS Hourly Roundups by Site
Regional Weather Roundup for Sacramento, CA
Select Site:  

000
ASUS46 KSTO 192315
RWRCA

NORTHERN AND CENTRAL CA REGIONAL WEATHER ROUNDUP
NATIONAL WEATHER SERVICE SACRAMENTO CA
400 PM PDT WED JUN 19 2019

NOTE: FAIR INDICATES FEW OR NO CLOUDS BELOW 12,000 FEET WITH NO
SIGNIFICANT WEATHER AND/OR OBSTRUCTIONS TO VISIBILITY.

CAZ001-003-200000-
NORTHWEST AREA

CITY           SKY/WX    TMP DP  RH WIND       PRES   REMARKS
CRESCENT CITY  SUNNY     59  47  64 N26G40    30.03F
UKIAH          SUNNY     93  62  35 SE6       29.85F HX  93
$$

CAZ006-505>513-200000-
BAY AREA

CITY           SKY/WX    TMP DP  RH WIND       PRES   REMARKS
SANTA ROSA     SUNNY     72  58  61 S13       29.92F
SAN RAFAEL     N/A      MM  MM  MM MISG
NAPA           SUNNY     73  60  63 S16       29.90F
CONCORD        SUNNY     82  58  43 W14       29.88F
OAKLAND CITY   N/A       69  MM  MM MISG
OAKLAND        MOSUNNY   68  56  65 NW20G25   29.94S
SAN FRAN CITY  N/A       63  MM  74 MISG
SAN FRAN ARPT  MOSUNNY   68  56  65 NW22      29.91S
LIVERMORE      SUNNY     84  57  39 W14       29.87F
HAYWARD        SUNNY     71  57  61 W18       29.93S
REDWOOD CITY   N/A       75  MM  59 MISG
MOFFETT ARPT   SUNNY     75  60  59 N10       29.92S
SAN JOSE ARPT  SUNNY     77  62  59 NW14      29.90F
$$
CAZ034-037-514>518-200000-
CENTRAL COAST

CITY           SKY/WX    TMP DP  RH WIND       PRES   REMARKS
WATSONVILLE    SUNNY     67  56  67 SW10      29.96F
SALINAS        SUNNY     71  56  58 N17       29.94F
MONTEREY       MOSUNNY   67  55  65 NW5       29.94F
SAN LUIS OBISP SUNNY     69  56  62 SW9       29.95F
SANTA MARIA    MOSUNNY   70  59  68 NW12      29.96F
$$
CAZ015-016-200000-
NORTHERN SACRAMENTO VALLEY

CITY           SKY/WX    TMP DP  RH WIND       PRES   REMARKS
REDDING        SUNNY    102  36  10 NE6G16    29.78F HX  96
RED BLUFF      SUNNY    103  40  11 N12G17    29.78F HX  98
OROVILLE       SUNNY     96  61  31 S8        29.82F HX  96
$$
CAZ016>018-200000-
SOUTHERN SACRAMENTO VALLEY

CITY           SKY/WX    TMP DP  RH WIND       PRES   REMARKS
AUBURN         SUNNY     91  59  33 SW7       29.90F HX  90
LINCOLN        FAIR      95  59  30 SW7       29.80F HX  94
MARYSVILLE     SUNNY     97  59  28 SW7       29.80F HX  96
PLACERVILLE    FAIR      88  55  33 S3        29.99F
SAC INTL ARPT  SUNNY     94  61  33 VRB6      29.80F HX  94
MATHER AIRPORT SUNNY     95  59  30 W7G13     29.80F HX  94
DOWNTOWN SAC   N/A       94  MM  MM MISG
SAC EXEC ARPT  SUNNY     90  64  42 S9        29.81F HX  91
VACAVILLE      SUNNY     96  63  33 VRB7      29.83F HX  97
$$
CAZ019>021-200000-
SAN JOAQUIN VALLEY

CITY           SKY/WX    TMP DP  RH WIND       PRES   REMARKS
STOCKTON       SUNNY     92  57  30 NW12G20   29.83F HX  90
MODESTO        SUNNY     95  55  26 NW10      29.82F HX  93
MERCED         SUNNY     95  62  33 NW13      29.81F HX  96
LEMOORE        SUNNY    102  57  22 N14       29.80F HX 101
FRESNO         MOSUNNY  101  50  18 NW9       29.80F HX  98
HANFORD        SUNNY    102  56  21 NW13      29.80F HX 101
PORTERVILLE    SUNNY    101  61  26 VRB5      29.81F HX 102
BAKERSFIELD    SUNNY    101  58  24 NW12      29.79F HX 100
$$
CAZ011-012-071-200000-
NORTHERN MOUNTAINS

CITY           SKY/WX    TMP DP  RH WIND       PRES   REMARKS
YREKA          SUNNY     84  28  13 NE22G30   30.05F
MOUNT SHASTA   SUNNY     81  34  18 N8        30.05F
ALTURAS        SUNNY     83  32  16 W17G28    30.06F
$$
CAZ011-012-071-200000-
SIERRA NEVADA MTNS

CITY           SKY/WX    TMP DP  RH WIND       PRES   REMARKS
BLUE CANYON    SUNNY     77  50  38 VRB7G17   30.16F
TRUCKEE        SUNNY     81  41  24 W14G20    30.17S
TAHOE VLY ARPT SUNNY     78  38  23 VRB5      30.18F
MAMMOTH LAKES  FAIR      80  41  25 W15G24    30.23S
$$


 

View Past Reports for Sacramento, CA.

Products Courtesy of NOAA-NWS
NWS Information Parsing Script by Ken True at Saratoga Weather - Script by SE Lincoln Weather.

Google


Contact Us | Mobile
Never base any life decisions on weather information from this site or anywhere over the Internet.
Site is dedicated to our Lord & Savior Jesus Christ | Random Quotes

Copyright © 2019 El Dorado Weather, Inc. | Site Designed By:  El Dorado Weather